Weather History for Prairie Du Chien, WI

Change the Weather History Date:

Saturday, November 22, 2014

  Actual Average Record
Temperature  
Mean Temperature 42 °F -  
Max Temperature 52 °F 41 °F 62 °F (1963)
Min Temperature 33 °F 25 °F 3 °F (1964)
Degree Days  
Heating Degree Days 22    
Moisture  
Dew Point 38 °F    
Average Humidity 88    
Maximum Humidity 95    
Minimum Humidity 65    
Precipitation  
Precipitation 0.00 in - - ()
Sea Level Pressure  
Sea Level Pressure 29.83 in    
Wind  
Wind Speed 4 mph (SSE)    
Max Wind Speed 10 mph    
Max Gust Speed 20 mph    
Visibility 6 miles    
Events      
Averages and records for this station are not official NWS values.
T = Trace of Precipitation, MM = Missing Value Source: NWS Daily Summary

Daily Weather History Graph

Daily Weather History Graph

Search for Another Location

Airport:

Trip Planner

Search our weather history database for the weather conditions in past years. The results will help you decide how hot, cold, wet, or windy it might be!

Date:

Astronomy

Nov. 22, 2014 Rise Set
Actual Time 7:05 AM CST 4:35 PM CST
Civil Twilight 6:34 AM CST 5:06 PM CST
Nautical Twilight 5:59 AM CST 5:41 PM CST
Astronomical Twilight 5:25 AM CST 6:15 PM CST
Moon 7:01 AM CST (11/22) 5:06 PM CST (11/22)
Length of Visible Light 10h 31m
Length of Day
9h 29m
New Moon, 0% of the Moon is Illuminated
Nov 22
New Moon
Nov 29
First Quarter
Dec 6
Full
Dec 14
Last Quarter
Dec 21
New

Hourly Weather History & Observations

Time (CST) Temp. Windchill Dew Point Humidity Pressure Visibility Wind Dir Wind Speed Gust Speed Precip Events Conditions
12:15 AM 33.8 °F 27.7 °F 23.0 °F 65% 30.04 in 10.0 mi ESE 6.9 mph - N/A   Overcast
12:35 AM 33.6 °F 28.4 °F 24.6 °F 70% 30.04 in 10.0 mi SSE 5.8 mph 19.6 mph N/A   Overcast
12:55 AM 33.3 °F 26.4 °F 25.7 °F 74% 30.04 in 10.0 mi South 8.1 mph - N/A   Overcast
1:15 AM 33.3 °F 27.9 °F 26.6 °F 77% 30.03 in 10.0 mi South 5.8 mph - N/A   Overcast
1:35 AM 33.1 °F 28.7 °F 27.3 °F 79% 30.03 in 10.0 mi South 4.6 mph - N/A   Overcast
1:55 AM 33.1 °F 27.7 °F 27.5 °F 80% 30.02 in 10.0 mi South 5.8 mph - N/A   Overcast
2:15 AM 33.1 °F - 28.0 °F 82% 30.02 in 7.0 mi Calm Calm - N/A   Overcast
2:35 AM 33.3 °F 27.9 °F 28.4 °F 82% 30.00 in 7.0 mi SSE 5.8 mph - N/A   Overcast
2:55 AM 33.8 °F 29.6 °F 28.9 °F 82% 30.00 in 7.0 mi South 4.6 mph - N/A   Overcast
3:15 AM 33.8 °F 29.6 °F 29.3 °F 84% 29.99 in 7.0 mi SSW 4.6 mph - N/A   Overcast
3:35 AM 33.8 °F 29.6 °F 29.5 °F 84% 29.98 in 7.0 mi South 4.6 mph - N/A   Overcast
3:55 AM 34.0 °F - 30.0 °F 85% 29.97 in 5.0 mi Calm Calm - N/A   Overcast
4:15 AM 34.2 °F 29.0 °F 30.6 °F 87% 29.96 in 5.0 mi South 5.8 mph - N/A   Overcast
4:35 AM 34.7 °F 29.6 °F 31.6 °F 89% 29.96 in 4.0 mi South 5.8 mph - N/A   Overcast
4:55 AM 34.7 °F 30.6 °F 32.0 °F 90% 29.95 in 4.0 mi SSE 4.6 mph - N/A   Overcast
5:15 AM 34.9 °F 32.0 °F 32.0 °F 89% 29.95 in 4.0 mi South 3.5 mph - N/A   Overcast
5:35 AM 35.1 °F 32.2 °F 32.0 °F 89% 29.92 in 4.0 mi East 3.5 mph - N/A   Overcast
5:55 AM 35.2 °F 32.4 °F 32.5 °F 90% 29.92 in 4.0 mi South 3.5 mph - N/A   Overcast
6:35 AM 35.8 °F 33.0 °F 33.1 °F 90% 29.92 in 4.0 mi South 3.5 mph - N/A   Overcast
6:55 AM 35.8 °F - 33.1 °F 90% 29.91 in 4.0 mi Calm Calm - N/A   Overcast
7:15 AM 35.6 °F - 33.1 °F 91% 29.91 in 4.0 mi Calm Calm - N/A   Overcast
7:35 AM 36.1 °F 33.5 °F 33.6 °F 91% 29.91 in 3.0 mi SSE 3.5 mph - N/A   Overcast
7:55 AM 36.0 °F - 33.4 °F 91% 29.90 in 3.0 mi Calm Calm - N/A   Overcast
8:15 AM 35.6 °F - 33.1 °F 91% 29.90 in 2.0 mi Calm Calm - N/A   Overcast
8:35 AM 35.8 °F - 33.8 °F 92% 29.89 in 2.0 mi Calm Calm - N/A   Overcast
8:55 AM 36.5 °F 32.7 °F 34.3 °F 92% 29.88 in 2.0 mi ESE 4.6 mph - N/A   Overcast
9:15 AM 36.7 °F 34.1 °F 34.7 °F 93% 29.87 in 1.8 mi SE 3.5 mph - N/A   Overcast
9:35 AM 37.0 °F - 35.1 °F 93% 29.87 in 1.8 mi Calm Calm - N/A   Overcast
9:55 AM 37.4 °F 34.9 °F 35.4 °F 93% 29.86 in 1.8 mi ESE 3.5 mph - N/A   Overcast
10:15 AM 37.6 °F - 35.8 °F 93% 29.86 in 1.2 mi Calm Calm - N/A   Overcast
10:35 AM 37.4 °F - 35.8 °F 94% 29.86 in 1.0 mi Calm Calm - N/A   Overcast
10:55 AM 37.6 °F - 36.0 °F 94% 29.86 in 1.0 mi Calm Calm - N/A   Overcast
11:15 AM 37.8 °F - 36.5 °F 95% 29.84 in 1.2 mi Calm Calm - N/A   Overcast
11:35 AM 38.5 °F - 36.9 °F 94% 29.83 in 2.0 mi Calm Calm - N/A   Overcast
11:55 AM 38.7 °F - 36.9 °F 93% 29.82 in 2.5 mi Calm Calm - N/A   Overcast
12:15 PM 39.2 °F - 37.2 °F 93% 29.81 in 4.0 mi Calm Calm - N/A   Overcast
12:35 PM 40.1 °F - 38.1 °F 93% 29.81 in 4.0 mi Calm Calm - N/A   Overcast
12:55 PM 40.3 °F 38.2 °F 38.3 °F 93% 29.81 in 4.0 mi South 3.5 mph - N/A   Overcast
1:15 PM 40.6 °F 38.6 °F 38.7 °F 93% 29.81 in 4.0 mi SW 3.5 mph - N/A   Overcast
1:35 PM 41.0 °F - 39.2 °F 93% 29.79 in 4.0 mi Calm Calm - N/A   Overcast
1:55 PM 41.9 °F - 39.7 °F 92% 29.78 in 4.0 mi Calm Calm - N/A   Overcast
2:15 PM 42.1 °F - 39.7 °F 91% 29.78 in 4.0 mi Calm Calm - N/A   Overcast
2:35 PM 42.4 °F - 40.1 °F 91% 29.77 in 4.0 mi Calm Calm - N/A   Overcast
2:55 PM 43.2 °F - 40.8 °F 91% 29.76 in 5.0 mi Calm Calm - N/A   Overcast
3:15 PM 44.1 °F - 41.0 °F 89% 29.76 in 5.0 mi Calm Calm - N/A   Overcast
3:55 PM 44.2 °F 42.7 °F 41.2 °F 89% 29.74 in 7.0 mi East 3.5 mph - N/A   Overcast
4:15 PM 43.7 °F 42.1 °F 40.6 °F 89% 29.74 in 7.0 mi East 3.5 mph - N/A   Overcast
4:35 PM 43.2 °F 40.5 °F 40.3 °F 90% 29.74 in 7.0 mi East 4.6 mph - N/A   Overcast
4:55 PM 42.8 °F 41.1 °F 40.3 °F 91% 29.73 in 7.0 mi East 3.5 mph - N/A   Overcast
5:15 PM 42.8 °F - 40.6 °F 92% 29.73 in 7.0 mi Calm Calm - N/A   Overcast
5:35 PM 42.3 °F - 39.9 °F 91% 29.73 in 7.0 mi Calm Calm - N/A   Overcast
5:55 PM 43.5 °F - 40.8 °F 90% 29.73 in 7.0 mi Calm Calm - N/A   Overcast
6:15 PM 47.1 °F - 43.3 °F 87% 29.73 in 10.0 mi South 4.6 mph - N/A   Overcast
6:35 PM 47.5 °F - 43.3 °F 86% 29.73 in 10.0 mi ESE 3.5 mph - N/A   Overcast
6:55 PM 48.2 °F - 43.9 °F 85% 29.72 in 10.0 mi Calm Calm - N/A   Overcast
7:15 PM 49.3 °F - 45.7 °F 87% 29.72 in 10.0 mi SSE 3.5 mph - N/A   Overcast
7:35 PM 49.3 °F - 46.6 °F 90% 29.72 in 7.0 mi Calm Calm - N/A   Overcast
7:55 PM 49.3 °F - 46.6 °F 90% 29.72 in 5.0 mi Calm Calm - N/A   Overcast
8:15 PM 49.6 °F - 47.1 °F 91% 29.71 in 5.0 mi South 4.6 mph - N/A   Overcast
8:35 PM 50.7 °F - 48.0 °F 90% 29.71 in 5.0 mi South 3.5 mph - N/A   Overcast
8:55 PM 51.3 °F - 48.7 °F 91% 29.71 in 5.0 mi South 10.4 mph - N/A   Overcast
9:15 PM 51.4 °F - 48.9 °F 91% 29.71 in 5.0 mi South 5.8 mph - N/A   Overcast
9:35 PM 51.6 °F - 49.1 °F 91% 29.70 in 5.0 mi SE 4.6 mph - N/A   Overcast
9:55 PM 52.2 °F - 49.5 °F 91% 29.69 in 5.0 mi SE 4.6 mph - N/A   Overcast
10:15 PM 52.7 °F - 49.5 °F 89% 29.68 in 7.0 mi SE 4.6 mph - N/A   Overcast
10:35 PM 52.9 °F - 49.1 °F 87% 29.68 in 7.0 mi SSE 3.5 mph - N/A   Overcast
10:55 PM 52.9 °F - 49.1 °F 87% 29.68 in 10.0 mi SSE 5.8 mph - N/A   Overcast
11:15 PM 52.7 °F - 48.6 °F 86% 29.68 in 10.0 mi SE 3.5 mph - N/A   Overcast
11:35 PM 52.7 °F - 48.4 °F 85% 29.68 in 10.0 mi SE 6.9 mph - N/A   Overcast
11:55 PM 52.9 °F - 48.2 °F 84% 29.67 in 10.0 mi SSE 5.8 mph - N/A   Overcast